Location: Newark
(25.0000°N, 73.5000°E)
Time: 14:16:54
(UTC+00:00)

SRMSAT - Visible Passes

Search period start: 18 February 2020 00:00
Search period end: 28 February 2020 00:00
Orbit: 848 x 865 km, 20.0° (Epoch: 17 February)

Date Brightness Start Highest point End Pass type
(mag) Time Alt. Az. Time Alt. Az. Time Alt. Az.
18 Feb ? 14:32:12 10° WSW 14:37:58 53° S 14:39:39 40° SE visible
18 Feb ? 16:21:20 10° W 16:21:39 11° WSW 16:21:39 11° WSW visible
19 Feb ? 14:19:13 10° WSW 14:24:58 53° S 14:27:35 31° ESE visible
19 Feb ? 16:08:23 10° W 16:09:35 16° WSW 16:09:35 16° WSW visible
20 Feb ? 14:06:13 10° WSW 14:11:58 52° S 14:15:32 23° ESE visible
20 Feb ? 15:55:28 10° WSW 15:57:32 21° WSW 15:57:32 21° WSW visible
21 Feb ? 13:53:14 10° WSW 13:58:58 51° S 14:03:30 16° ESE visible
21 Feb ? 15:42:33 10° WSW 15:45:30 25° SW 15:45:30 25° SW visible
22 Feb ? 13:40:16 10° W 13:45:58 50° S 13:51:29 11° ESE visible
22 Feb ? 15:29:39 10° WSW 15:33:29 29° SW 15:33:29 29° SW visible
23 Feb ? 13:27:18 10° W 13:32:57 48° S 13:38:38 10° ESE visible
23 Feb ? 15:16:47 10° WSW 15:21:30 29° SSW 15:21:30 29° SSW visible
24 Feb ? 15:03:55 10° WSW 15:08:49 27° SSW 15:09:34 26° S visible
25 Feb ? 14:51:06 10° WSW 14:55:47 24° SSW 14:57:39 21° S visible
26 Feb ? 14:38:19 10° WSW 14:42:46 22° SSW 14:45:47 15° SSE visible
27 Feb ? 14:25:35 10° WSW 14:29:44 20° SSW 14:33:52 10° SSE visible
